Wind_Speed
11 8 5 1 4 3 4 4 3 2 3 2 3 4 3 7 4 3 4 25 29 33 31 28 25 22 18 17 18 21 22 20 17 15 13 15 18 17 15 14 12 12 12 12 13 14 15 14 13
12 6 2 2 4 7 5 3 7 2 6 11 3 3 1 1 1 3 17 22 34 33 32 29 25 22 18 16 15 18 20 19 17 15 15 17 18 16 14 12 11 11 10 11 12 12 11 12 12
13 6 3 3 4 11 5 5 3 7 11 3 1 2 1 3 3 8 13 25 36 34 32 29 26 22 18 16 14 14 17 17 16 16 17 18 17 15 12 11 11 10 10 10 10 10 10 11 9
11 4 1 6 13 8 4 7 2 7 4 5 9 4 3 3 2 3 19 27 35 35 32 28 24 21 19 15 13 12 15 16 16 17 17 18 16 13 11 10 9 9 9 9 9 9 8 8 7
14 5 6 7 17 3 7 7 1 6 6 12 8 1 3 3 4 7 24 30 35 35 32 28 25 21 18 16 12 11 12 14 15 16 17 17 14 12 10 9 8 8 8 8 9 9 8 7 7
7 5 8 18 16 8 6 7 4 6 6 8 5 4 3 5 7 15 27 30 33 33 33 30 27 23 19 15 13 11 11 12 13 14 15 15 13 11 10 8 8 8 8 7 8 8 7 7 7
11 8 19 13 21 11 7 8 8 5 7 4 7 3 4 5 10 16 31 30 34 32 33 30 27 25 21 19 16 12 10 10 12 13 14 14 13 12 9 8 7 8 8 8 7 7 7 7 8
7 6 15 13 15 17 8 8 4 1 1 2 6 2 2 2 11 18 30 29 34 34 32 31 28 26 23 21 18 15 13 11 10 12 14 13 14 13 11 9 9 8 8 8 7 6 6 8 8
11 8 15 19 18 11 7 9 4 2 1 3 4 2 4 7 12 19 30 27 33 32 32 31 29 27 25 23 21 18 16 13 12 12 14 15 16 14 12 10 9 8 8 7 7 7 8 8 9
12 14 16 5 7 13 8 3 1 2 2 3 5 6 8 9 13 20 27 27 34 34 33 31 29 27 25 23 21 19 17 16 16 15 15 16 16 16 14 13 11 9 8 7 6 7 8 8 9
11 17 10 8 10 9 9 11 2 2 2 3 6 10 10 10 12 17 21 24 29 33 32 30 28 25 24 23 22 22 21 20 18 17 16 15 17 17 17 15 14 11 10 8 7 8 8 9 9
10 16 15 12 13 12 5 4 10 7 5 4 9 11 11 12 14 16 20 22 26 29 29 29 28 27 25 23 22 22 21 21 21 19 17 16 15 16 17 17 15 13 12 10 10 11 11 10 10
17 7 18 16 11 11 8 12 6 5 10 9 13 12 12 13 14 16 17 22 26 28 29 28 28 26 24 23 22 22 22 22 21 19 16 15 16 16 17 17 17 15 13 11 11 11 9 9 8
18 18 12 21 13 10 12 7 4 10 9 10 16 14 13 15 15 17 19 21 23 25 26 27 28 25 23 23 21 20 20 20 18 17 17 17 16 16 16 17 17 15 14 14 13 13 11 10 11
9 15 18 11 22 12 7 12 11 9 13 12 13 14 13 13 15 14 15 18 19 21 23 25 26 25 23 20 18 20 20 20 19 17 16 18 17 16 16 16 15 15 13 13 14 15 16 14 14
13 8 12 18 12 10 18 20 15 15 12 14 13 12 14 14 11 13 12 12 13 14 21 22 23 24 23 21 19 17 16 18 17 20 18 18 18 17 16 16 15 14 16 16 16 15 18 19 19
18 15 17 8 24 7 16 9 13 21 21 16 14 14 13 12 13 12 10 9 16 17 15 21 26 26 20 22 21 20 14 18 20 25 21 20 19 17 16 16 14 16 17 17 16 17 17 19 18
17 20 16 14 9 24 17 9 8 20 25 20 16 14 12 13 14 9 9 9 9 19 22 24 23 27 28 27 28 29 23 23 24 25 21 22 19 18 16 17 15 15 16 17 16 17 17 19 20
13 18 13 17 9 17 18 15 10 16 17 20 16 16 17 18 14 11 10 9 11 13 22 26 28 27 26 29 28 26 26 25 25 24 18 20 19 17 16 18 16 14 15 15 15 17 21 22 22
13 17 15 9 13 10 16 18 17 14 14 19 21 21 21 21 20 15 15 14 14 11 10 19 25 29 28 24 25 25 21 17 23 23 20 23 19 17 17 17 17 15 16 19 16 21 19 21 21
7 16 14 13 15 4 12 11 18 15 14 13 20 19 20 21 21 20 18 17 19 18 15 12 12 22 27 24 22 26 29 28 23 16 18 15 14 13 17 16 18 17 16 17 17 17 20 22 24
9 7 13 13 17 7 8 6 9 14 14 14 18 22 24 24 26 24 21 21 21 23 21 20 18 17 23 25 26 27 27 19 20 20 17 13 13 11 9 10 12 14 15 14 16 20 21 23 22
12 10 7 12 13 8 9 4 4 5 12 14 18 26 29 27 28 29 28 25 23 24 26 23 24 18 21 23 22 18 17 19 19 17 13 11 12 12 10 14 12 14 17 19 20 23 24 28 25
11 11 5 6 6 8 11 9 6 8 11 10 15 22 26 27 30 32 32 31 29 27 32 27 25 21 19 20 17 14 16 21 20 19 14 10 13 15 17 18 18 16 18 23 26 27 29 29 34
17 16 7 7 7 4 10 8 3 8 7 9 8 16 20 21 26 30 31 32 34 31 30 26 26 24 16 15 16 16 16 17 22 21 18 11 11 13 15 15 18 21 19 20 25 31 32 35 37
24 22 7 8 8 8 7 8 3 6 4 7 12 17 18 21 21 23 23 25 28 24 29 22 14 13 12 10 9 5 4 9 12 10 8 13 13 13 11 13 13 16 19 21 23 26 27 28 34
19 17 5 7 5 9 5 2 4 7 7 7 12 8 7 13 15 18 17 15 15 20 23 18 13 9 7 7 9 13 13 9 4 1 2 7 9 9 11 12 12 14 15 15 15 14 16 20 25
20 14 6 3 9 8 6 6 6 4 7 11 9 6 7 6 8 9 8 10 11 13 13 10 11 13 20 21 20 18 15 10 8 7 7 7 7 9 11 12 13 14 16 16 16 16 16 16 17
18 14 2 5 1 4 7 4 1 3 8 10 3 10 13 15 17 20 21 20 20 20 24 30 29 26 21 18 18 15 12 10 8 8 7 8 10 11 13 15 17 17 18 19 19 19 19 18 18
18 16 4 4 4 3 3 4 2 6 7 2 10 16 22 24 26 32 33 34 34 34 34 34 28 24 22 20 17 15 12 11 11 15 12 11 13 15 17 18 20 21 22 22 23 23 23 23 22
Wind_Direction
262 286 322 295 222 247 220 227 301 249 163 11 254 193 288 316 296 344 148 168 173 167 167 164 160 156 158 159 163 166 167 166 164 162 156 154 150 145 140 136 133 134 136 132 129 126 129 127 120
242 266 282 147 233 209 208 240 228 330 315 314 182 191 268 2 290 147 143 163 170 169 168 165 162 158 158 156 158 166 170 170 170 167 160 157 152 147 143 138 133 136 140 140 136 132 132 131 122
225 227 208 218 210 218 212 193 236 316 325 307 271 198 328 91 99 148 156 161 169 170 170 168 165 160 156 155 155 161 169 171 169 166 162 159 156 153 151 141 137 141 146 148 147 141 137 139 130
198 185 108 228 220 220 229 155 332 342 357 22 340 307 93 34 149 184 165 162 168 171 170 169 166 162 157 154 156 155 162 164 164 164 162 161 160 159 156 147 143 148 153 154 157 155 152 158 151
176 156 214 226 233 229 223 190 244 331 321 320 317 84 82 32 93 156 166 164 170 170 169 171 169 167 164 159 159 156 159 161 165 165 165 166 166 168 165 157 153 156 159 159 161 168 175 185 187
157 173 210 221 222 214 239 216 284 300 310 312 352 314 84 73 147 165 170 167 172 173 173 174 173 171 170 170 168 164 159 165 168 171 172 174 174 175 174 167 165 165 161 165 166 174 184 200 208
208 192 219 228 231 213 206 244 250 276 288 313 340 322 102 100 156 169 172 169 173 176 175 176 176 176 174 173 173 177 173 168 175 179 181 181 182 183 182 175 174 173 168 170 172 181 187 202 214
188 216 212 221 218 229 208 201 181 301 335 357 343 71 111 151 168 171 174 172 173 176 179 178 180 180 179 180 181 180 179 177 179 188 190 191 193 193 191 186 186 183 182 182 179 183 194 207 218
183 215 220 216 213 210 184 189 178 187 79 73 19 43 135 167 167 165 171 170 175 176 181 183 184 183 184 184 187 187 188 191 193 195 201 203 206 206 204 200 197 196 194 193 190 197 205 217 224
195 218 217 222 198 211 195 207 110 193 63 117 97 105 135 154 165 166 170 172 177 181 183 188 191 189 189 190 191 198 199 204 206 207 209 209 213 214 213 210 208 207 208 209 206 213 221 228 233
200 224 197 202 192 208 203 219 278 263 234 222 201 158 156 157 168 171 171 177 178 184 187 190 196 195 197 198 201 204 208 211 214 217 218 217 218 220 220 220 216 215 216 220 225 235 236 238 245
209 219 206 207 204 213 202 200 231 241 233 194 164 157 161 166 173 175 177 176 179 185 190 193 197 199 200 203 207 213 215 218 221 224 224 225 228 228 228 228 228 226 229 229 240 249 252 251 253
210 187 208 202 184 194 216 231 221 200 156 156 158 154 159 175 179 178 186 186 188 191 194 196 198 201 202 206 211 214 218 223 227 231 234 238 235 234 233 232 234 234 240 245 250 252 262 253 253
196 206 194 214 207 215 219 228 219 200 170 156 168 168 165 165 174 180 187 195 198 201 201 200 200 202 205 207 209 213 220 227 230 235 239 242 241 239 236 236 236 237 242 246 246 250 258 260 262
160 189 215 201 213 217 208 234 211 216 179 175 181 181 182 181 171 174 185 192 196 201 205 207 206 204 207 210 211 217 220 223 225 234 240 242 239 237 236 238 239 239 242 243 248 251 260 266 267
176 178 193 209 176 196 194 238 199 209 184 187 182 179 186 187 184 190 191 195 184 192 211 204 206 208 210 211 211 220 229 236 232 234 235 236 235 236 238 239 238 241 240 247 253 258 265 269 271
192 202 201 174 202 163 198 227 208 202 204 193 194 193 193 195 199 202 212 219 221 211 197 201 208 208 208 213 216 217 219 234 237 237 234 231 236 240 241 244 241 239 242 247 252 264 276 283 286
185 194 194 190 168 202 198 217 179 188 192 202 193 200 209 215 217 213 216 225 227 219 219 224 209 206 211 213 216 224 226 226 231 240 252 251 246 247 246 247 239 234 241 248 257 270 279 284 291
166 185 165 197 150 179 203 199 161 180 195 195 210 214 218 223 225 226 228 226 239 227 215 223 229 220 219 225 230 236 233 235 243 250 245 251 246 246 234 242 242 239 251 261 271 290 273 287 297
177 171 186 169 178 203 190 206 209 202 204 214 221 223 224 225 227 220 232 231 238 227 226 228 230 224 225 232 237 240 238 251 263 259 251 256 258 254 260 258 259 253 250 254 265 258 264 273 287
173 181 161 152 168 149 155 196 219 230 234 225 225 224 219 222 229 232 231 239 235 243 248 258 247 230 232 237 243 247 257 272 259 258 254 250 261 271 270 277 272 258 257 262 274 273 266 286 289
169 188 179 137 154 176 210 197 213 217 209 217 220 222 233 234 232 232 233 234 247 249 250 258 258 250 245 245 245 246 253 244 242 233 238 255 270 265 244 265 266 266 271 272 269 274 279 278 279
181 166 140 171 171 156 169 205 154 180 220 224 221 222 224 223 222 225 230 235 239 243 255 259 263 253 244 243 245 241 233 219 222 240 248 265 262 276 274 266 260 263 270 270 271 272 286 282 278
171 151 72 100 155 203 172 199 184 174 205 223 230 230 229 230 231 232 232 236 236 236 246 252 251 258 261 243 238 233 221 232 241 240 245 279 280 273 275 277 278 277 262 263 265 265 260 276 277
174 162 140 164 186 178 172 188 171 192 225 241 256 240 227 232 239 237 236 238 239 239 245 246 246 250 252 244 242 239 243 239 236 241 254 269 288 291 280 278 274 273 271 261 257 267 263 264 269
185 177 169 164 178 143 160 200 140 165 229 243 267 272 252 244 229 230 232 238 237 242 248 243 245 248 245 230 227 235 248 240 229 240 268 290 310 312 313 311 304 296 288 284 278 271 270 262 260
181 198 145 107 101 144 164 163 234 223 245 287 314 295 226 206 210 216 224 226 217 222 244 248 244 228 200 182 153 130 125 129 146 120 37 349 332 320 309 303 302 304 304 304 302 296 283 275 264
182 152 170 149 152 154 173 161 126 207 316 336 352 21 70 114 127 122 131 154 171 189 187 167 142 136 128 120 112 102 90 82 69 41 6 351 339 328 317 310 307 307 308 310 309 307 302 299 295
170 192 138 105 2 136 143 162 110 309 308 314 13 98 103 104 97 101 106 104 107 111 120 117 113 105 102 94 84 78 77 63 43 21 357 336 326 317 309 309 310 309 305 302 301 299 299 297 292
179 187 176 137 152 63 90 127 71 291 302 217 109 103 100 97 99 105 102 102 100 102 102 97 95 93 88 83 75 64 51 33 9 352 335 325 314 309 307 307 304 303 301 300 298 297 295 295 291
Height
1511 1511 1512 1513 1516 1513 1510 1503 1499 1496 1495 1496 1496 1496 1497 1499 1497 1502 1496 1499 1504 1508 1514 1518 1522 1526 1530 1533 1536 1538 1541 1542 1544 1546 1547 1549 1551 1553 1554 1555 1556 1557 1558 1559 1558 1559 1559 1560 1560
1509 1511 1512 1512 1513 1514 1505 1501 1499 1497 1497 1495 1494 1496 1496 1496 1497 1497 1497 1501 1506 1509 1514 1519 1523 1527 1531 1534 1537 1540 1541 1543 1545 1547 1548 1551 1552 1554 1555 1557 1557 1558 1559 1561 1561 1562 1562 1562 1562
1507 1510 1512 1507 1509 1505 1501 1498 1496 1496 1494 1493 1492 1493 1495 1497 1497 1498 1497 1500 1505 1511 1516 1520 1525 1529 1532 1536 1538 1541 1543 1544 1545 1547 1550 1552 1554 1555 1557 1557 1557 1558 1560 1561 1562 1563 1563 1564 1565
1505 1510 1511 1506 1502 1501 1496 1496 1498 1496 1493 1493 1494 1492 1495 1496 1497 1498 1498 1501 1506 1512 1517 1522 1527 1531 1534 1537 1540 1542 1544 1546 1547 1549 1550 1553 1555 1557 1558 1558 1558 1559 1560 1561 1562 1563 1565 1565 1566
1503 1505 1504 1504 1497 1498 1497 1497 1497 1494 1494 1493 1493 1491 1494 1495 1496 1496 1499 1503 1507 1513 1518 1523 1527 1531 1535 1538 1541 1543 1545 1547 1549 1550 1551 1553 1556 1558 1558 1560 1560 1560 1561 1561 1562 1563 1564 1566 1566
1501 1501 1500 1497 1495 1497 1495 1496 1496 1494 1494 1493 1492 1492 1494 1495 1495 1496 1500 1504 1509 1513 1517 1522 1527 1531 1535 1538 1541 1543 1545 1547 1549 1550 1552 1554 1555 1558 1559 1560 1561 1561 1562 1563 1562 1562 1563 1565 1566
1493 1493 1490 1494 1491 1493 1494 1494 1494 1494 1493 1491 1492 1491 1495 1495 1495 1496 1499 1503 1509 1514 1517 1522 1527 1530 1534 1537 1540 1543 1545 1547 1549 1550 1553 1554 1555 1557 1559 1560 1561 1562 1562 1563 1563 1563 1563 1563 1564
1492 1492 1489 1490 1490 1488 1492 1493 1493 1493 1492 1492 1490 1490 1493 1494 1494 1496 1500 1504 1509 1513 1517 1521 1526 1529 1533 1537 1540 1542 1545 1547 1549 1551 1552 1554 1555 1556 1558 1559 1560 1561 1561 1562 1563 1563 1564 1563 1564
1490 1488 1482 1484 1490 1487 1490 1490 1492 1492 1492 1492 1491 1492 1493 1493 1495 1496 1500 1504 1508 1512 1516 1520 1524 1528 1531 1535 1538 1541 1544 1546 1548 1549 1551 1552 1554 1555 1557 1559 1560 1561 1561 1562 1562 1563 1563 1563 1564
1484 1482 1480 1484 1487 1487 1488 1489 1490 1492 1491 1492 1492 1492 1492 1493 1496 1496 1498 1500 1504 1508 1513 1517 1521 1526 1530 1534 1537 1541 1543 1545 1546 1547 1549 1550 1552 1554 1556 1557 1558 1560 1561 1562 1562 1562 1562 1562 1562
1479 1474 1480 1484 1486 1489 1489 1490 1490 1490 1489 1490 1490 1491 1492 1493 1495 1496 1498 1501 1503 1506 1511 1515 1520 1525 1528 1531 1535 1537 1540 1542 1545 1546 1547 1549 1551 1552 1554 1555 1555 1557 1558 1560 1561 1561 1561 1560 1560
1477 1477 1478 1481 1484 1487 1488 1489 1488 1489 1489 1488 1489 1490 1492 1493 1495 1496 1497 1500 1503 1506 1510 1513 1517 1522 1525 1529 1531 1535 1538 1541 1543 1545 1546 1548 1550 1551 1553 1554 1555 1555 1556 1557 1558 1559 1559 1559 1558
1471 1475 1478 1480 1482 1485 1487 1487 1487 1487 1488 1488 1489 1490 1492 1493 1494 1495 1498 1499 1501 1505 1508 1511 1515 1519 1522 1525 1528 1532 1535 1538 1540 1543 1545 1547 1547 1549 1551 1552 1554 1554 1555 1556 1556 1557 1558 1557 1557
1467 1472 1476 1478 1481 1483 1484 1487 1488 1486 1487 1488 1489 1491 1491 1493 1493 1495 1496 1498 1500 1503 1507 1509 1512 1515 1519 1523 1526 1529 1532 1535 1538 1541 1543 1544 1545 1547 1548 1550 1551 1552 1553 1553 1554 1555 1555 1555 1555
1468 1472 1475 1476 1478 1479 1484 1484 1484 1484 1486 1488 1489 1490 1491 1492 1493 1494 1496 1497 1500 1502 1506 1508 1510 1513 1516 1519 1523 1525 1529 1530 1533 1536 1538 1541 1542 1543 1545 1547 1548 1550 1550 1550 1551 1552 1553 1553 1552
1464 1468 1471 1467 1475 1477 1481 1469 1479 1484 1484 1486 1488 1489 1490 1491 1492 1494 1496 1498 1500 1501 1503 1506 1508 1510 1512 1514 1517 1520 1524 1528 1530 1533 1534 1537 1539 1541 1542 1543 1545 1547 1547 1548 1549 1549 1550 1550 1550
1456 1453 1461 1465 1469 1472 1476 1475 1476 1479 1483 1485 1486 1488 1489 1490 1490 1491 1493 1495 1497 1500 1501 1502 1505 1507 1510 1512 1514 1515 1515 1520 1528 1528 1531 1533 1537 1538 1540 1541 1543 1544 1545 1545 1545 1546 1547 1548 1548
1442 1449 1458 1458 1466 1469 1473 1472 1472 1475 1479 1482 1485 1486 1487 1488 1489 1490 1491 1492 1494 1496 1499 1501 1502 1503 1506 1508 1510 1512 1511 1514 1520 1524 1530 1534 1534 1535 1536 1539 1540 1539 1541 1541 1541 1542 1543 1544 1544
1445 1449 1455 1459 1462 1468 1471 1473 1472 1475 1478 1479 1482 1485 1485 1486 1487 1489 1489 1490 1491 1492 1494 1497 1499 1502 1504 1505 1507 1510 1508 1513 1517 1521 1527 1532 1531 1532 1532 1536 1536 1535 1537 1535 1535 1536 1539 1540 1540
1443 1445 1451 1457 1460 1463 1471 1473 1470 1471 1476 1478 1480 1481 1482 1484 1484 1486 1487 1488 1489 1490 1490 1492 1494 1498 1500 1503 1505 1507 1508 1509 1516 1521 1526 1529 1530 1530 1532 1533 1533 1531 1531 1531 1529 1527 1531 1532 1536
1445 1441 1445 1447 1459 1464 1468 1472 1471 1471 1474 1475 1476 1478 1479 1480 1481 1482 1483 1484 1486 1486 1487 1489 1492 1494 1497 1499 1502 1503 1505 1507 1515 1519 1521 1524 1525 1527 1528 1529 1529 1527 1526 1527 1528 1528 1528 1529 1530
1449 1445 1444 1449 1453 1465 1462 1466 1467 1463 1467 1470 1472 1475 1476 1476 1477 1478 1479 1479 1480 1482 1484 1486 1488 1490 1492 1495 1497 1499 1503 1506 1511 1514 1517 1520 1521 1523 1523 1522 1523 1524 1522 1522 1524 1526 1524 1525 1523
1443 1446 1446 1445 1448 1454 1465 1467 1457 1464 1463 1462 1465 1466 1467 1469 1471 1472 1473 1475 1478 1478 1479 1482 1484 1486 1489 1491 1494 1497 1500 1504 1506 1511 1513 1515 1515 1516 1516 1517 1516 1518 1518 1517 1520 1521 1519 1519 1519
1439 1447 1449 1450 1450 1460 1453 1454 1458 1455 1452 1452 1455 1457 1460 1462 1464 1466 1468 1471 1473 1477 1477 1480 1481 1481 1482 1484 1489 1492 1496 1501 1503 1506 1506 1507 1511 1511 1511 1512 1511 1510 1512 1511 1512 1512 1511 1513 1514
1438 1445 1453 1460 1457 1454 1455 1456 1447 1449 1448 1449 1449 1450 1452 1454 1457 1458 1462 1466 1469 1472 1475 1475 1477 1478 1480 1482 1485 1489 1493 1497 1498 1502 1502 1502 1504 1505 1506 1505 1502 1503 1505 1505 1503 1502 1503 1505 1507
1429 1428 1428 1444 1450 1449 1458 1454 1444 1443 1445 1446 1446 1444 1445 1447 1449 1452 1455 1459 1463 1468 1469 1472 1475 1477 1480 1482 1484 1487 1490 1495 1498 1500 1500 1498 1498 1500 1500 1497 1497 1498 1498 1497 1497 1496 1495 1495 1498
1429 1431 1427 1439 1441 1443 1450 1449 1444 1444 1443 1442 1439 1437 1437 1440 1443 1446 1449 1452 1457 1461 1467 1470 1475 1477 1481 1481 1482 1487 1490 1494 1496 1497 1498 1494 1494 1496 1496 1495 1493 1493 1492 1490 1489 1489 1488 1488 1487
1414 1425 1434 1429 1447 1449 1451 1447 1439 1441 1439 1438 1437 1436 1439 1442 1446 1448 1450 1453 1456 1461 1465 1469 1473 1476 1482 1484 1487 1489 1490 1495 1495 1494 1491 1493 1495 1495 1494 1493 1491 1488 1487 1486 1486 1484 1483 1481 1479
1418 1423 1427 1427 1431 1436 1450 1443 1441 1443 1441 1441 1441 1444 1446 1448 1451 1452 1455 1456 1460 1466 1469 1473 1477 1484 1488 1490 1486 1488 1494 1494 1494 1493 1495 1495 1495 1493 1493 1491 1488 1484 1483 1482 1480 1479 1476 1475 1472
1411 1417 1421 1422 1440 1440 1434 1445 1443 1443 1442 1442 1445 1449 1450 1452 1456 1459 1461 1464 1469 1474 1478 1480 1485 1489 1492 1492 1489 1493 1493 1492 1493 1492 1496 1495 1493 1491 1490 1487 1485 1481 1480 1478 1475 1473 1470 1469 1467